Regional Weather Roundup
Issued by NWS Little Rock, AR

Home | Current Version | Previous Version | Text Only | Print | Product List | Glossary On
Versions: 1 2 3 4 5 6 7 8 9 10 11 12 13 14 15 16 17 18 19 20 21 22 23 24 25 26 27 28 29 30 31 32 33 34 35 36 37 38 39 40 41 42 43 44 45 46 47 48 49 50
942
ASUS44 KLZK 231705
RWRLZK

WEATHER ROUNDUP FOR ARKANSAS
NATIONAL WEATHER SERVICE LITTLE ROCK AR
1200 PM CDT MON OCT 23 2017

NOTE: "FAIR" INDICATES FEW OR NO CLOUDS BELOW 12,000 FEET WITH NO
SIGNIFICANT WEATHER AND/OR OBSTRUCTIONS TO VISIBILITY.

ARZ001-003-010-029-231800-
NORTHWEST ARKANSAS

CITY           SKY/WX    TMP DP  RH WIND       PRES   REMARKS
FAYETTEVILLE   MOSUNNY   67  42  40 W14       30.02F
FORT SMITH       N/A    N/A N/A N/A MISG      30.05F
HARRISON       SUNNY     67  39  35 W14G21    29.99F
BENTONVILLE    MOSUNNY   63  42  46 SW13      30.04F
ROGERS         CLOUDY    65  44  46 SW16      30.02F
SILOAM SPGS    CLOUDY    64  43  46 W13G22    30.04S
HIGHFILL       CLOUDY    64  43  46 SW15      30.02F
SPRINGDALE     MOSUNNY   64  37  36 W12G23    30.04F
$$

ARZ004-005-016-231800-
NORTH CENTRAL ARKANSAS

CITY           SKY/WX    TMP DP  RH WIND       PRES   REMARKS
BATESVILLE     SUNNY     69  44  40 W6        30.00
FLIPPIN        SUNNY     67  45  45 SW9       29.99F
MTN HOME       SUNNY     66  47  50 VRB3      29.98F
$$

ARZ040-041-231800-
WEST CENTRAL ARKANSAS

CITY           SKY/WX    TMP DP  RH WIND       PRES   REMARKS
MENA           SUNNY     70  37  30 W14       30.08F
MOUNT IDA      SUNNY     70  33  25 W8G20     30.05F
$$

ARZ009-017-025-026-028-231800-
NORTHEAST ARKANSAS

CITY           SKY/WX    TMP DP  RH WIND       PRES   REMARKS
CORNING        FAIR      64  48  55 W9        29.98F
JONESBORO      PTSUNNY   64  49  57 W12       29.99F
NEWPORT        SUNNY     68  42  38 W15       30.00F
WALNUT RIDGE     N/A    N/A N/A N/A MISG        N/A
BLYTHEVILLE    MOSUNNY   64  51  62 W13G20    29.99S
NW BLYTHEVILLE MOSUNNY   63  48  59 W12G22    29.99S
$$

ARZ022-023-033-042-044-231800-
CENTRAL ARKANSAS

CITY           SKY/WX    TMP DP  RH WIND       PRES   REMARKS
LITTLE ROCK    MOSUNNY   70  43  37 W10G18    30.05F
N LITTLE ROCK    N/A     68  48  50 W5        30.07F
JACKSONVILLE   SUNNY     68  45  42 W8        30.04F
SEARCY         SUNNY     68  43  40 W8        30.03F
HOT SPRINGS    SUNNY     70  45  40 W8        30.07F
RUSSELLVILLE   SUNNY     64  48  56 W5        30.04F
CLINTON        FAIR      68  45  42 VRB5      30.02F
$$

ARZ036-231800-
EAST ARKANSAS

CITY           SKY/WX    TMP DP  RH WIND       PRES   REMARKS
WEST MEMPHIS   SUNNY     64  47  53 NW9G16    30.01F
$$

ARZ050-053-066-070-073-231800-
SOUTHWEST ARKANSAS

CITY           SKY/WX    TMP DP  RH WIND       PRES   REMARKS
ARKADELPHIA    FAIR      69  49  48 SW10G17   30.09F
CAMDEN         SUNNY     70  45  40 SW8       30.09F
TEXARKANA      SUNNY     69  43  38 W9        30.11F
EL DORADO      SUNNY     69  48  47 W10       30.11F
DE QUEEN       SUNNY     69  46  43 SW10      30.08F
$$

ARZ056-057-069-231800-
SOUTHEAST ARKANSAS

CITY           SKY/WX    TMP DP  RH WIND       PRES   REMARKS
PINE BLUFF     SUNNY     69  41  36 W10       30.06F
STUTTGART      SUNNY     68  44  42 NW16      30.05F
MONTICELLO     SUNNY     67  45  45 NW8       30.08F

$$






USA.gov is the U.S. government's official web portal to all federal, state and local government web resources and services.